www.pogodaiklimat.ru

Погода и климат >> Архив погоды >> Индия >> Hoshangabad


ПОГОДА в Hoshangabad

  • Прогноз погоды в Hoshangabad
  • Монитор погоды в Hoshangabad
  • Климат города

АРХИВ ПОГОДЫ в Hoshangabad

Время (UTC), дата Ветер
(напр.,м/с)
 
Видим.   Явления Облачность Т
(С)
Тd
(С)
f
(%)
Тe
(С)
Тes
(С)
Комфортность P
(гПа)
Po
(гПа)
Тmin
(С)
Tmax
(С)
R
(мм)
R24
(мм)
S
(см)
03 11.07 штиль 0 4000 м 10/5 750 м
[Sc Ac trans]
+26.2 +24.2 89 +36 +39 очень
душно
999.5 966.0 +25.0
06 11.07 ЮЗ 1 4000 м 10/5 750 м
[Sc Ac trans]
+27.2 +24.9 87 +39 +44 очень
душно
999.6 966.2
09 11.07 штиль 0 4000 м 10/6 750 м
[Sc Ac trans]
+27.2 +25.8 92 +40 +44 очень
душно
997.5 964.2
12 11.07 штиль 0 4000 м 10/6 450 м
[Frnb Ac trans]
+26.0 +23.7 87 +35 +36 очень
душно
997.8 964.2 +27.7 1
03 12.07 ЮЗ 1 4000 м 10/5 750 м
[Sc Ac trans]
+24.8 +24.2 96 +34 +36 очень
душно
999.4 965.7 +23.8 20
06 12.07 штиль 0 4000 м 10/5 750 м
[Sc Ac trans]
+26.0 +23.7 87 +35 +41 очень
душно
999.6 966.0
09 12.07 штиль 0 4000 м 10/5 750 м
[Sc Ac trans]
+27.2 +25.5 90 +40 +44 очень
душно
997.1 963.8
12 12.07 штиль 0 4000 м 10/6 450 м
[Frnb Ac trans]
+24.8 +23.6 93 +34 +34 очень
душно
998.0 964.4 +27.7 1
03 13.07 ЮЗ 1 4000 м 10/5 750 м
[Sc Ac trans]
+25.0 +24.4 96 +35 +37 очень
душно
999.1 965.4 +24.6 18
06 13.07 штиль 0 4000 м 10/5 750 м
[Sc Ac trans]
+26.0 +24.6 92 +37 +42 очень
душно
999.6 966.0
09 13.07 ЮЗ 1 4000 м 10/5 750 м
[Sc Ac trans]
+28.4 +25.0 82 +41 +45 опасность
перегрева
997.6 964.4
12 13.07 ЮЗ 1 4000 м 10/5 750 м
[Sc Ac trans]
+26.0 +24.8 93 +37 +37 очень
душно
998.0 964.6 +28.7
03 14.07 ЮЗ 1 4000 м 10/5 750 м
[Sc Ac trans]
+26.0 +25.0 94 +37 +39 очень
душно
998.2 964.6 +25.0 0.4
06 14.07 штиль 0 4000 м 10/5 750 м
[Sc Ac trans]
+26.4 +25.8 97 +39 +45 очень
душно
964.9 3
09 14.07 штиль 0 4000 м 10/5 750 м
[Sc Ac trans]
+27.0 +26.4 97 +41 +46 опасность
перегрева
996.1 962.7 5
12 14.07 штиль 0 4000 м 10/1 750 м
[Sc Ac trans]
+26.0 +25.4 97 +38 +39 очень
душно
996.6 963.0 +28.0 6
03 15.07 штиль 0 4000 м 10/5 750 м
[Sc Ac trans]
+26.4 +26.1 98 +39 +42 очень
душно
997.3 963.9 +25.0 61
06 15.07 штиль 0 4000 м 9/4 600 м
[Sc Ac trans]
+28.0 +26.6 92 +43 +52 опасность
перегрева
997.1 963.8 2
09 15.07 штиль 0 4000 м 5/4 750 м
[Sc diur, vesp Ac trans]
+31.4 +27.0 78 +49 +61 опасность
перегрева
994.4 961.6 2
12 15.07 штиль 0 4000 м 6/4 600 м
[Sc diur, vesp Ac trans]
+31.2 +26.8 78 +49 +50 опасность
перегрева
993.2 960.5 +31.7 2
03 16.07 штиль 0 4000 м 10/4 750 м
[Sc Ac trans]
+27.4 +26.0 92 +41 +44 опасность
перегрева
996.2 963.0 +26.0 3
06 16.07 штиль 0 10 км 9/4 750 м
[Sc Ac trans]
+29.8 +26.7 83 +46 +55 опасность
перегрева
996.2 963.1
09 16.07 ЮЗ 1 4000 м 8/4 750 м
[Sc Ac trans]
+32.4 +28.0 78 +53 +60 опасность
перегрева
993.6 961.0
12 16.07 штиль 0 2000 м слабый дождь 10/5 450 м
[Sc Ac trans]
+27.0 +27.0 100 +42 +43 опасность
перегрева
992.8 960.0 +33.0 5
03 17.07 штиль 0 2000 м слабый дождь 10/6 450 м
[Frnb Ac trans]
+25.6 +25.0 96 +36 +38 очень
душно
997.7 964.1 +23.6 116
06 17.07 штиль 0 2000 м гроза, ливневой дождь 10/6 360 м
[Frnb As op]
+26.4 +26.4 100 +40 +42 очень
душно
999.4 965.7 37
09 17.07 штиль 0 2000 м слабый дождь 10/6 450 м
[Frnb As op]
+25.6 +25.6 100 +37 +39 очень
душно
997.4 963.8 68
12 17.07 штиль 0 2000 м слабый дождь 10/6 450 м
[Frnb Ac trans]
+24.8 +24.8 100 +35 +35 очень
душно
995.9 962.8 +26.0 74

 

Местоположение метеостанции Hoshangabad (Madhya Pradesh, Индия): широта 22.77 долгота 77.77 высота над уровнем моря 302 м.

В архиве по умолчанию представлена погода в Hoshangabad за последнюю неделю. Архивные данные за месяц целиком и за предыдущие месяцы, начиная с января 2011 года, Вы можете получить, выбрав интересующий диапазон дат из раскрывающегося списка и нажав кнопку "Ввод!".


*Определитесь, кто Вы:
робот инопланетянин человек

Внимание! Время в таблицах - всемирное. Для получения местного времени необходимо прибавить поправку, которая в Hoshangabad равна 5.5 ч.

Смотрите также архив погоды в соседних городах и на ближайших метеорологических станциях:

Погода в Raisen (Madhya Pradesh, Индия) (61 км)
Погода в Bhopal (Madhya Pradesh, Индия) (71 км)
Погода в Pachmarhi (Madhya Pradesh, Индия) (76 км)
Погода в Betul (Madhya Pradesh, Индия) (101 км)
Погода в Narsinghpur (Madhya Pradesh, Индия) (146 км)
Погода в Chhindwara (Madhya Pradesh, Индия) (147 км)
Погода в Sagar (Madhya Pradesh, Индия) (156 км)
Погода в Shajapur (Madhya Pradesh, Индия) (166 км)
Погода в Rajgarh (Madhya Pradesh, Индия) (174 км)
Погода в Khandwa (Madhya Pradesh, Индия) (178 км)

Пояснения к столбцам:

Ветер - указаны скорость ветра в м/с - средняя за 10 мин, порывы в срок и между сроками (в фигурных скобках) и направление, откуда дует ветер: С - северный, СВ - северо-восточный, В - восточный, ЮВ - юго-восточный, Ю - южный, ЮЗ - юго-западный, З - западный, СЗ - северо-западный.
Видимость - горизонтальная дальность видимости в метрах или километрах. При видимости от 1 до 10 км при отсутствии осадков обычно наблюдается дымка, при ухудшении видимости до 1 км и менее - туман. В сухую погоду видимость может ухудшаться дымом, пылью или мглою.
Явления - указаны атмосферные явления, наблюдавшиеся в срок или в последний час перед сроком; фигурными скобками обозначены явления, наблюдавшиеся между сроками (за 1-3 часа до срока); квадратными скобками обозначены град или гололедные отложения с указанием их диаметра в мм.
Облачность - указаны через наклонную черту общая и нижняя облачность в баллах и высота нижней границы облаков в метрах; квадратными скобками обозначены формы облаков: Ci - перистые, Cs - перисто-слоистые, Cc - перисто-кучевые, Ac - высококучевые, As - высокослоистые, Sc - слоисто-кучевые, Ns - слоисто-дождевые, Cu - кучевые, Cb - кучево-дождевые. Подробнее классификацию облаков см. в Атласе облаков (PDF).
T - Температура воздуха - температура, измеренная на высоте 2 м над землей.
Td - Температура точки росы - температура, при понижении до которой содержащийся в воздухе водяной пар достигнет насыщения.
f - Относительная влажность воздуха - влажноcть воздуха, измеренная на высоте 2 м над землей.
Te - Эффективная температура - температура, которую ощущает одетый по сезону человек в тени. Характеристика душности погоды. При расчете учитывается влияние влажности воздуха и скорости ветра на теплоощущения человека.
Tes - Эффективная температура на солнце - температура, которую ощущает человек, с поправкой на солнечный нагрев. Характеристика знойности погоды. Зависит от высоты солнца над горизонтом, облачности и скорости ветра. Ночью, в пасмурную погоду, а также при ветре 12 м/с и более поправка равна нулю.
P - Атмосферное давление - приведенное к уровню моря атмосферное давление.
Po - Атмосферное давление - измеренное на уровне метеостанции атмосферное давление.
Tmin - Минимальная температура - минимум температуры воздуха на высоте 2 м над землей.
Tmax - Максимальная температура - максимум температуры воздуха на высоте 2 м над землей.
R - Количество осадков - Количество выпавших осадков за период времени, мм. При наведении курсора мыши на число - период времени, за который выпало указанное количество осадков.
R24 - Количество осадков - Количество выпавших осадков за 24 часа, мм.
S - Снежный покров - Высота снежного покрова, см. При наведении курсора мыши на число - состояние снежного покрова и степень покрытия местности в баллах.